George/Botha, South Africa

2:01 PM SAST on January 23, 2017 (GMT +0200)
George

Weather History for FAGG - June, 2013

Change the Weather History Date:

Sunday, June 2, 2013

  Actual Average Record
Temperature  
Mean Temperature 54 °F -  
Max Temperature 59 °F 65 °F 84 °F (2004)
Min Temperature 48 °F 45 °F 39 °F (2002)
Degree Days  
Heating Degree Days 12    
Growing Degree Days 4 (Base 50)    
Moisture  
Dew Point 38 °F    
Average Humidity 52    
Maximum Humidity 76    
Minimum Humidity 32    
Precipitation  
Precipitation 0.01 in - - ()
Sea Level Pressure  
Sea Level Pressure 29.66 in    
Wind  
Wind Speed 16 mph ()    
Max Wind Speed 23 mph    
Max Gust Speed 36 mph    
Visibility 7.7 miles    
Events Rain    
Averages and records for this station are not official NWS values.
T = Trace of Precipitation, MM = Missing Value Source: Averaged Metar Reports

Daily Weather History Graph

Daily Weather History Graph

Search for Another Location

Airport or City:

Trip Planner

Search our weather history database for the weather conditions in past years. The results will help you decide how hot, cold, wet, or windy it might be!

Date:

Astronomy

Jun. 02, 2013 Rise Set
Actual Time 7:27 AM SAST 5:28 PM SAST
Civil Twilight 7:00 AM SAST 5:56 PM SAST
Nautical Twilight 6:29 AM SAST 6:27 PM SAST
Astronomical Twilight 5:59 AM SAST 6:57 PM SAST
Moon 1:34 AM SAST (6/2) 1:37 PM SAST (6/2)
Length of Visible Light 10h 55m
Length of Day
10h 01m
Waning Crescent, 33% of the Moon is Illuminated
Jun 2
Waning Crescent
Jun 8
New
Jun 16
First Quarter
Jun 23
Full
Jun 30
Last Quarter

Hourly Weather History & Observations

Time (SAST) Temp. Dew Point Humidity Pressure Visibility Wind Dir Wind Speed Gust Speed Precip Events Conditions
12:00 AM 57.2 °F 37.4 °F 48% 29.68 in 6.2 mi NW 18.4 mph 29.9 mph N/A   Partly Cloudy
1:00 AM 57.2 °F 35.6 °F 44% 29.65 in - NW 23.0 mph - N/A   Clear
2:00 AM 56 °F 34 °F 32% 29.65 in 37 mi NW 18.4 mph - -  
2:00 AM 57.2 °F 35.6 °F 44% 29.65 in - NW 18.4 mph - N/A   Clear
3:00 AM 57.2 °F 35.6 °F 44% 29.62 in 6.2 mi NW 11.5 mph - N/A   Partly Cloudy
4:00 AM 57.2 °F 35.6 °F 44% 29.59 in - NNW 18.4 mph 35.7 mph N/A   Clear
5:00 AM 55 °F 39 °F 44% 29.62 in 12 mi NNW 21.9 mph - -   Mostly Cloudy
5:00 AM 53.6 °F 41.0 °F 62% 29.62 in 6.2 mi NNW 20.7 mph - N/A   Scattered Clouds
6:00 AM 55.4 °F 39.2 °F 54% 29.59 in 6.2 mi WNW 10.4 mph - N/A   Mostly Cloudy
7:00 AM 51.8 °F 42.8 °F 71% 29.62 in 6.2 mi NW 12.7 mph - N/A   Mostly Cloudy
8:00 AM 50 °F 42 °F 67% 29.62 in 6 mi North 16.1 mph - - Rain Light Rain
8:00 AM 50.0 °F 42.8 °F 76% 29.62 in 6.2 mi North 16.1 mph - N/A Rain Light Rain
9:00 AM 51.8 °F 41.0 °F 67% 29.62 in 6.2 mi NNW 19.6 mph - N/A   Mostly Cloudy
10:00 AM 53.6 °F 41.0 °F 62% 29.62 in 6.2 mi North 18.4 mph - N/A   Scattered Clouds
11:00 AM 53 °F 41 °F 53% 29.67 in 19 mi NNW 17.3 mph - -   Mostly Cloudy
11:00 AM 53.6 °F 41.0 °F 62% 29.65 in 6.2 mi NNW 16.1 mph - N/A   Mostly Cloudy
12:00 PM 55.4 °F 41.0 °F 58% 29.56 in 6.2 mi North 19.6 mph - N/A   Partly Cloudy
1:00 PM 55.4 °F 39.2 °F 54% 29.56 in 6.2 mi NNW 21.9 mph 34.5 mph N/A   Partly Cloudy
2:00 PM 58 °F 37 °F 34% 29.61 in 12 mi NW 21.9 mph - -   Partly Cloudy
2:00 PM 57.2 °F 37.4 °F 48% 29.59 in 6.2 mi NW 21.9 mph - N/A   Scattered Clouds
3:00 PM 57.2 °F 35.6 °F 44% 29.62 in 6.2 mi NNW 23.0 mph - N/A   Scattered Clouds
4:00 PM 57.2 °F 35.6 °F 44% 29.65 in 6.2 mi NW 21.9 mph 34.5 mph N/A   Scattered Clouds
5:00 PM 55 °F 36 °F 37% 29.68 in 12 mi NW 17.3 mph - -   Partly Cloudy
5:00 PM 55.4 °F 35.6 °F 47% 29.65 in 6.2 mi NW 17.3 mph - N/A   Scattered Clouds
6:00 PM 53.6 °F 35.6 °F 51% 29.68 in 6.2 mi WNW 9.2 mph - N/A   Mostly Cloudy
7:00 PM 51.8 °F 37.4 °F 58% 29.71 in 6.2 mi WNW 15.0 mph - N/A   Mostly Cloudy
8:00 PM 52 °F 34 °F 38% 29.78 in 12 mi West 13.8 mph - -   Mostly Cloudy
8:00 PM 51.8 °F 33.8 °F 50% 29.77 in 6.2 mi West 13.8 mph - N/A   Mostly Cloudy
9:00 PM 48.2 °F 37.4 °F 66% 29.77 in - West 12.7 mph - N/A   Clear
10:00 PM 50.0 °F 33.8 °F 54% 29.80 in - WNW 20.7 mph 32.2 mph N/A   Clear
11:00 PM 51.8 °F 32.0 °F 47% 29.80 in - WNW 20.7 mph - N/A   Clear